Regional Weather Roundup
Issued by NWS

Home | Current Version | Previous Version | Graphics & Text | Print | Product List | Glossary On
Versions: 1 2 3 4 5 6 7 8 9 10 11 12 13 14 15 16 17 18 19 20 21 22 23 24 25 26 27 28 29 30 31 32 33 34 35 36 37 38 39 40 41 42 43 44 45 46 47 48 49 50
000
ASUS43 KOAX 191810
RWRNE

WEATHER ROUNDUP FOR NEBRASKA
NATIONAL WEATHER SERVICE OMAHA NE
100 PM CDT SAT APR 19 2014

NOTES: SATELLITE DATA IS BEING USED TO AUGMENT CLOUD COVER ABOVE
       12000 FEET.
       "FAIR" INDICATES FEW OR NO CLOUDS BELOW 12,000 FEET WITH NO
       SIGNIFICANT WEATHER AND/OR OBSTRUCTIONS TO VISIBILITY.

  * THESE STATIONS DO NOT REPORT WEATHER SUCH AS RAIN...SNOW OR FOG.

NEZ001>004-019>022-054>056-191900-
NEBRASKA PANHANDLE

CITY           SKY/WX    TMP DP  RH WIND       PRES   REMARKS
SCOTTSBLUFF    CLOUDY    57  26  30 SE6       30.07S
6HR MIN TEMP:  45; 6HR MAX TEMP:  58;

ALLIANCE       CLOUDY    56  23  27 E9        30.06F
6HR MIN TEMP:  40; 6HR MAX TEMP:  58;

CHADRON        PTSUNNY   57  34  41 SE7       30.06S
6HR MIN TEMP:  42; 6HR MAX TEMP:  57;

KIMBALL        CLOUDY    51  29  42 E8        30.08S
SIDNEY         CLOUDY    55  30  38 NE15      30.08S
6HR MIN TEMP:  47; 6HR MAX TEMP:  55;

$$

NEZ057>060-069>072-079>082-191900-
SOUTHWEST NEBRASKA

CITY           SKY/WX    TMP DP  RH WIND       PRES   REMARKS
NORTH PLATTE   CLOUDY    64  42  44 NE16      30.01R
6HR MIN TEMP:  48; 6HR MAX TEMP:  64;

IMPERIAL       MOSUNNY   63  41  44 NE18G24   30.02R
6HR MIN TEMP:  44; 6HR MAX TEMP:  64;

LEXINGTON      CLOUDY    65  50  58 NE7       29.98R
MCCOOK         MOSUNNY   66  49  54 NE15      29.96F
6HR MIN TEMP:  50; 6HR MAX TEMP:  66;

OGALLALA       CLOUDY    64  34  32 NE17      30.02R
$$

NEZ005>010-023>029-035>040-094-191900-
NORTH CENTRAL NEBRASKA

CITY           SKY/WX    TMP DP  RH WIND       PRES   REMARKS
VALENTINE      PTSUNNY   60  25  26 N10       30.04F
6HR MIN TEMP:  46; 6HR MAX TEMP:  61;

AINSWORTH      PTSUNNY   62  32  32 NE10G17   30.03F
BROKEN BOW     CLOUDY    62  46  55 NE16      29.98F
6HR MIN TEMP:  46; 6HR MAX TEMP:  62;

O`NEILL        CLOUDY    63  38  38 N13G21    30.02R
ORD            CLOUDY    64  47  53 NE6       29.99R
6HR MIN TEMP:  47; 6HR MAX TEMP:  65;

THEDFORD       PTSUNNY   65  32  30 NE15G22   30.02F
$$

NEZ041-046>049-061>064-073>077-083>087-191900-
SOUTH CENTRAL NEBRASKA

CITY           SKY/WX    TMP DP  RH WIND       PRES   REMARKS
GRAND ISLAND   CLOUDY    70  48  45 SW9       29.98F
6HR MIN TEMP:  53; 6HR MAX TEMP:  71;

AURORA         PTSUNNY   72  49  44 S10G20    29.98S
HASTINGS       PTSUNNY   70  47  43 S13G18    29.97S
6HR MIN TEMP:  53; 6HR MAX TEMP:  71;

HEBRON         PTSUNNY   74  48  39 S17G24    29.99F
HOLDREGE       PTSUNNY   65  47  52 CALM      29.97S
KEARNEY *      CLOUDY    66  48  52 W7        29.98S
YORK           PTSUNNY   73  48  40 S16G24    29.99F
$$

NEZ011>018-030>034-042>045-191900-
NORTHEAST NEBRASKA

CITY           SKY/WX    TMP DP  RH WIND       PRES   REMARKS
NORFOLK        PTSUNNY   70  47  43 S12       29.99F
6HR MIN TEMP:  53; 6HR MAX TEMP:  70;

ALBION         CLOUDY    65  46  50 S5        30.00S
BLAIR          CLOUDY    74  43  32 S21G28    30.02F
COLUMBUS *     PTSUNNY   73  48  40 S16       30.00S
FREMONT        PTSUNNY   75  45  34 S16G26    30.01F
TEKAMAH        PTSUNNY   77  46  33 S21G32    30.00F
6HR MIN TEMP:  54; 6HR MAX TEMP:  77;

$$

NEZ050>053-065>068-078-088>093-191900-
SOUTHEAST NEBRASKA

CITY           SKY/WX    TMP DP  RH WIND       PRES   REMARKS
LINCOLN        PTSUNNY   77  47  34 S23G35    30.00F
6HR MIN TEMP:  54; 6HR MAX TEMP:  77;

OMAHA EPPLEY   PTSUNNY   74  44  34 S18G25    30.02F
6HR MIN TEMP:  54; 6HR MAX TEMP:  74;

BEATRICE       PTSUNNY   75  47  36 S20G26    30.00F
NEBRASKA CITY  PTSUNNY   74  44  33 S23G31    30.04F
PLATTSMOUTH    PTSUNNY   74  39  27 S24G33    30.04F
$$

NEZ044-045-051>053-067-191900-
OMAHA AREA

CITY           SKY/WX    TMP DP  RH WIND       PRES   REMARKS
OMAHA EPPLEY   PTSUNNY   74  44  34 S18G25    30.02F
6HR MIN TEMP:  54; 6HR MAX TEMP:  74;

BLAIR          CLOUDY    74  43  32 S21G28    30.02F
FREMONT        PTSUNNY   75  45  34 S16G26    30.01F
MILLARD        CLOUDY    73  45  36 S15G22    30.02F
OFFUTT AFB     PTSUNNY   75  46  35 S17G26    30.03F
PLATTSMOUTH    PTSUNNY   74  39  27 S24G33    30.04F
WAHOO          FAIR      75  43  31 S22G29    30.01F
$$



USA.gov is the U.S. government's official web portal to all federal, state and local government web resources and services.